Location: Chmeln�
(49.6483°N, 14.9871°E)
Time: 09:31:21
(UTC+00:00)

Cosmos 2227 - Pass Details

Date: 18 September 2020
Orbit: 836 x 859 km, 71.0° (Epoch: 27 October)

Event Time Altitude Azimuth Distance (km) Brightness Sun altitude
Rises 17:58:08 0° 205° (SSW) 3,420 7.5 -9.2°
Reaches altitude 10° 18:00:35 10° 205° (SSW) 2,486 6.8 -9.6°
Maximum altitude 18:06:19 86° 118° (ESE) 863 4.2 -10.5°
Drops below altitude 10° 18:12:03 10° 30° (NNE) 2,489 6.5 -11.3°
Sets 18:14:30 0° 30° (NNE) 3,425 7.2 -11.7°
